Content
SEND FEEDBACK

Daily
Averages
Monthly
Summary
United States of America

UKIAH, CALIFORNIA


Home > North America > United States > California
Elevation: 615 feet     Latitude: 39 08N     Longitude: 123 12W

WEATHER
 
SELECT A DAY
Number of Records: 219,136;   Date Range: 1/1/95 - 9/30/14
 
SHARE

PRINT THIS DATA

[ ← Previous Day ]
WEATHER ALMANAC - MARCH 28, 2013
[ Next Day → ]
[ °C ]   °F
Weather ElementAverageHighLow
Temperature54.7 °F62.1 °F (12:56 pm)48 °F (11:56 pm)
Dewpoint47.8 °F50 °F (3:56 pm)46 °F (11:56 pm)
Humidity78.4 %93 % (7:56 am)58 % (12:56 pm)
Barometer30.05 in30.09 in (9:56 pm)29.99 in (2:56 am)
Wind Speed2.9 mph11.5 mph (2:56 pm)
Weather ElementAverage
Visibility10 mi
Wind DirectionENE (66.1 °)

Weather ElementTotal
Precipitation0.01 in
Heating Degree Days10 (Base 65)
Growing Degree Days5.1 (Base 50)
Averaged from 23 records on March 28, 2013
WEATHER CONDITIONS BREAKOUT
WIND DIRECTION BREAKOUT
WEATHER BY HOUR - MARCH 28, 2013
[ °C ]   °F
Local TimeTemperatureDewpointHumidityBarometerVisibilityWind DirectionWind SpeedGust SpeedPrecipitationEventsConditions
1:56 AM52.0 °F46.9 °F83 %30.00 in10.0 miSouth (170°)4.6 mphOvercast
2:56 AM52.0 °F46.9 °F83 %29.99 in10.0 miCalmOvercast
3:56 AM51.1 °F46.9 °F86 %30.00 in10.0 miCalmOvercast
4:56 AM51.1 °F46.9 °F86 %29.99 in10.0 miCalmOvercast
5:56 AM51.1 °F46.9 °F86 %30.00 in10.0 miCalmOvercast
6:56 AM50.0 °F46.9 °F89 %30.01 in10.0 miCalmOvercast
7:56 AM50.0 °F48.0 °F93 %30.03 in10.0 miCalmOvercast
8:56 AM51.1 °F48.0 °F89 %30.05 in10.0 miCalmOvercast
9:56 AM53.1 °F48.0 °F83 %30.06 in10.0 miSE (140°)5.8 mphOvercast
10:56 AM55.9 °F48.0 °F75 %30.06 in10.0 miSE (130°)6.9 mphScattered Clouds
11:56 AM57.0 °F48.0 °F72 %30.06 in10.0 miSE (140°)4.6 mphScattered Clouds
12:56 PM62.1 °F46.9 °F58 %30.06 in10.0 miSSE (160°)4.6 mphOvercast
1:56 PM62.1 °F48.0 °F60 %30.06 in10.0 miSSE (150°)10.4 mphOvercast
2:56 PM62.1 °F46.9 °F58 %30.05 in10.0 miSouth (170°)11.5 mph0.00 inOvercast
3:56 PM60.1 °F50.0 °F69 %30.06 in10.0 miSSE (160°)4.6 mph0.01 inOvercast
4:56 PM60.1 °F48.0 °F64 %30.06 in10.0 miSSE (150°)8.1 mph0.00 inOvercast
5:56 PM59.0 °F50.0 °F72 %30.06 in10.0 miSSE (150°)4.6 mph0.00 inOvercast
6:56 PM59.0 °F48.9 °F69 %30.06 in10.0 miCalmOvercast
7:56 PM55.9 °F50.0 °F80 %30.06 in10.0 miCalmPartly Cloudy
8:56 PM53.1 °F48.0 °F83 %30.08 in10.0 miCalmPartly Cloudy
9:56 PM52.0 °F48.0 °F86 %30.09 in10.0 miCalmPartly Cloudy
10:56 PM51.1 °F46.9 °F86 %30.09 in10.0 miCalmClear
11:56 PM48.0 °F46.0 °F93 %30.09 in10.0 miCalmClear
Hourly data recorded from KUKI, located miles away from Ukiah, California







STORIES FROM OUR PARTNERS